Location: Civry
(47.2902°N, 4.6156°E)
Time: 05:13:05
(UTC+00:00)

Cosmos 1726 - Pass Details

Date: 09 April 2020
Orbit: 482 x 500 km, 82.5° (Epoch: 01 June)

Event Time Altitude Azimuth Distance (km) Brightness Sun altitude
Rises 19:00:47 0° 193° (SSW) 2,581 5.7 -7.0°
Reaches altitude 10° 19:02:53 10° 195° (SSW) 1,702 4.8 -7.3°
Maximum altitude 19:06:37 71° 280° (W) 535 2.5 -7.9°
Drops below altitude 10° 19:10:21 10° 5° (N) 1,711 5.1 -8.5°
Sets 19:12:29 0° 8° (N) 2,597 6.0 -8.9°
